This demonstration page uses our WeatherBlox Daily Observations layout. Learn more.

Left ArrowRight Arrow

Hourly Observations for April 6, 2021

Temp ( °F °C ) Dew Point ( °F °C ) Humidity (%) Winds ( mph kmh ) Pressure ( in mb ) Visibility ( mi km ) Precip ( " mm )
12:53 am 00:53 Clear 67 19.4 54 12.2 63 63 S 14 22 29.56 1001 10 16 0.00 0.00
1:53 am 01:53 Clear 66 18.9 54 12.2 65 65 S 12 19 29.55 1001 10 16 0.00 0.00
2:53 am 02:53 Clear 65 18.3 54 12.2 68 68 SSE 10 17 29.55 1001 10 16 0.00 0.00
3:53 am 03:53 Clear 63 17.2 54 12.2 73 73 SE 7 11 29.54 1000 10 16 0.00 0.00
4:53 am 04:53 Clear 63 17.2 53 11.7 70 70 SSE 15 24 29.53 1000 10 16 0.00 0.00
5:53 am 05:53 Clear 62 16.7 53 11.7 73 73 SSE 15 24 29.53 1000 10 16 0.00 0.00
6:53 am 06:53 Partly Cloudy with Light Rain 60 15.6 53 11.7 78 78 SSE 13 20 29.53 1000 10 16 0.00 0.00
7:53 am 07:53 Sunny 59 15 53 11.7 81 81 SSE 13 20 29.54 1000 10 16 0.00 0.00
8:53 am 08:53 Sunny 60 15.6 53 11.7 78 78 SSE 17 28 29.52 1000 10 16 0.00 0.00
9:53 am 09:53 Sunny 64 17.8 53 11.7 68 68 S 18 30 29.52 1000 10 16 0.00 0.00
10:53 am 10:53 Mostly Sunny 67 19.4 54 12.2 63 63 SSE 17 28 29.53 1000 10 16 0.00 0.00
11:21 am 11:21 Mostly Cloudy 67 19.4 54 12.2 63 63 SSE 20 31 29.51 999 10 16 0.00 0.00
11:35 am 11:35 Cloudy 68 20 55 12.8 63 63 SSE 20 31 29.50 999 10 16 0.00 0.00
11:53 am 11:53 Cloudy 68 20 54 12.2 61 61 SSE 22 35 29.52 1000 10 16 0.00 0.00
12:53 pm 12:53 Mostly Cloudy 71 21.7 55 12.8 57 57 SSE 22 35 29.49 999 10 16 0.00 0.00
1:53 pm 13:53 Mostly Sunny 72 22.2 56 13.3 57 57 S 25 41 29.48 998 10 16 0.00 0.00
2:53 pm 14:53 Cloudy 72 22.2 56 13.3 57 57 S 20 31 29.47 998 10 16 0.00 0.00
3:53 pm 15:53 Cloudy 71 21.7 56 13.3 59 59 SSE 21 33 29.46 998 10 16 0.00 0.00
4:53 pm 16:53 Mostly Cloudy 71 21.7 56 13.3 59 59 S 20 31 29.46 998 10 16 0.00 0.00
5:53 pm 17:53 Cloudy 71 21.7 57 13.9 61 61 S 18 30 29.47 998 10 16 0.00 0.00
6:53 pm 18:53 Cloudy 69 20.6 58 14.4 68 68 SSE 16 26 29.48 998 10 16 0.00 0.00
7:53 pm 19:53 Cloudy 68 20 58 14.4 70 70 SSE 23 37 29.47 998 10 16 0.00 0.00
8:53 pm 20:53 Mostly Clear 67 19.4 58 14.4 73 73 SE 17 28 29.44 997 10 16 0.00 0.00
9:53 pm 21:53 Mostly Cloudy 59 15 50 10 72 72 N 12 19 29.52 1000 10 16 0.00 0.00
10:00 pm 22:00 Mostly Cloudy 60 15.6 51 10.6 72 72 NNE 10 17 29.53 1000 10 16 0.00 0.00
10:53 pm 22:53 Cloudy 54 12.2 47 8.3 77 77 NNW 22 35 29.56 1001 10 16 0.00 0.00
11:16 pm 23:16 Mostly Cloudy 50 10 46 7.8 86 86 NNW 23 37 29.62 1003 10 16 0.00 0.00
11:29 pm 23:29 Mostly Cloudy 50 10 45 7.2 83 83 NNW 24 39 29.64 1004 10 16 0.00 0.00
11:53 pm 23:53 Mostly Cloudy 48 8.9 44 6.7 86 86 NNW 23 37 29.62 1003 10 16 0.00 0.00

Powered by AerisWeather